Probability
3 19 45 48 52 52 52 52 48 48 55 55 52 45 45 45 48 52 48 55 55 52 52 42 45 52 52 52 55 65 68 61 61 61 58 65 61 61 61 58 61 58 52
10 23 45 45 45 48 45 39 39 39 45 45 45 45 42 45 45 45 45 45 39 39 39 35 35 42 48 42 55 58 55 55 55 55 65 58 68 71 65 65 71 61 61
13 26 39 39 42 45 42 42 35 39 42 42 42 45 45 45 42 45 45 39 35 32 26 23 29 29 35 48 45 48 52 55 58 61 61 45 58 65 61 61 65 65 58
13 19 26 35 45 35 32 29 29 32 35 35 35 35 35 35 35 39 32 32 29 26 26 23 26 26 32 35 45 48 48 52 52 48 23 35 42 58 52 58 58 55 61
13 16 19 35 32 29 26 29 29 29 29 29 32 23 19 19 19 19 19 23 19 23 23 23 26 19 26 26 35 48 45 55 52 29 23 23 32 58 58 55 45 58 48
10 6 19 29 26 26 19 19 23 23 13 13 16 16 16 16 13 16 19 16 16 19 16 16 16 19 19 29 39 45 42 39 26 10 16 29 32 48 52 52 52 58 45
6 6 13 19 19 16 16 16 13 13 13 13 13 13 13 10 10 13 13 13 13 16 19 23 26 23 19 26 42 29 45 35 16 10 23 32 42 58 42 48 58 48 52
3 6 6 19 19 16 10 10 10 10 10 10 10 10 13 10 13 13 13 13 16 16 23 13 26 19 19 29 35 29 35 39 16 19 19 26 42 55 45 52 52 52 35
3 3 3 6 6 13 13 6 6 6 6 6 6 10 10 10 10 13 13 10 16 16 19 16 16 13 13 26 29 39 45 35 3 10 19 19 45 45 39 39 42 42 39
3 3 3 3 3 3 6 6 6 6 6 6 10 6 13 13 10 10 10 13 10 13 13 19 13 13 10 26 32 26 23 16 6 10 13 23 48 39 42 39 39 39 32
3 3 3 3 3 3 3 6 3 6 10 6 6 6 10 3 3 3 6 13 6 6 23 19 13 13 6 13 29 16 10 6 6 10 16 45 58 48 45 39 39 42 39
3 3 3 3 3 0 3 0 0 0 0 0 0 0 0 0 0 0 6 13 13 10 10 10 10 3 3 0 3 6 0 0 3 10 19 52 55 48 52 52 45 45 45
3 3 0 0 0 0 0 0 0 0 0 0 0 0 0 0 0 0 0 0 0 0 0 3 0 0 0 0 3 3 0 0 3 3 23 52 48 45 45 52 42 42 42
3 3 0 0 0 0 0 0 0 0 0 0 0 0 0 0 0 0 0 0 0 0 0 0 0 0 0 0 0 0 0 0 0 0 23 55 48 52 42 42 39 42 42
0 0 0 0 0 0 0 0 0 0 0 0 0 0 0 0 0 0 0 0 0 0 0 0 0 0 0 0 0 0 0 0 0 0 3 39 55 45 35 32 42 35 32
0 0 0 0 0 0 0 0 0 0 0 0 0 0 0 0 0 0 0 0 0 0 0 0 0 0 0 0 0 0 0 0 0 0 0 13 29 42 39 39 32 35 29
0 0 0 0 0 0 0 0 0 0 0 0 0 0 0 0 0 0 0 0 0 0 0 0 0 0 0 0 0 0 0 0 0 0 0 0 3 19 32 32 29 29 32
0 0 0 0 0 0 0 0 0 0 0 0 0 0 0 0 0 0 0 0 0 0 0 0 0 0 0 0 0 0 0 0 0 0 0 0 0 0 6 26 19 23 19
0 0 0 0 0 0 0 0 0 0 0 0 0 0 0 0 0 0 0 0 0 0 0 0 0 0 0 0 0 0 0 0 0 0 0 0 0 0 0 0 19 23 23
0 0 0 0 0 0 0 0 0 0 0 0 0 0 0 0 0 0 0 0 0 0 0 0 0 0 0 0 0 0 0 0 0 0 0 0 0 0 0 0 0 0 16
0 0 0 0 0 0 0 0 0 0 0 0 0 0 0 0 0 0 0 0 0 0 0 0 0 0 0 0 0 0 0 0 0 0 0 0 0 0 0 0 0 0 0
0 0 0 0 0 0 0 0 0 0 0 0 0 0 0 0 0 0 0 0 0 0 0 0 0 0 0 0 0 0 0 0 0 0 0 0 0 0 0 0 0 0 0
0 0 0 0 0 0 0 0 0 0 0 0 0 0 0 0 0 0 0 0 0 0 0 0 0 0 0 0 0 0 0 0 0 0 0 0 0 0 0 0 0 0 0
0 0 0 0 0 0 0 0 0 0 0 0 0 0 0 0 0 0 0 0 0 0 0 0 0 0 0 0 0 0 0 0 0 0 0 0 0 0 0 0 0 0 0
0 0 0 0 0 0 0 0 0 0 0 0 0 0 0 0 0 0 0 0 0 0 0 0 0 0 0 0 0 0 0 0 0 0 0 0 0 0 0 0 0 0 0
0 0 0 0 0 0 0 0 0 0 0 0 0 0 0 0 0 0 0 0 0 0 0 0 0 0 0 0 0 0 0 0 0 0 0 0 0 0 0 0 0 0 0
Height
5895 5894 5894 5893 5893 5893 5893 5892 5892 5891 5891 5890 5889 5888 5888 5887 5886 5885 5884 5884 5883 5882 5882 5882 5881 5881 5881 5881 5881 5882 5882 5883 5883 5884 5884 5885 5886 5886 5887 5888 5889 5890 5891
5894 5894 5894 5893 5893 5893 5893 5892 5892 5891 5890 5890 5889 5888 5887 5886 5885 5884 5883 5883 5882 5881 5881 5880 5880 5880 5880 5880 5880 5880 5881 5882 5882 5883 5883 5884 5885 5885 5886 5887 5888 5889 5890
5894 5894 5894 5893 5893 5893 5892 5892 5892 5891 5890 5890 5889 5888 5887 5886 5885 5884 5883 5882 5881 5880 5880 5879 5879 5879 5879 5879 5879 5879 5879 5880 5880 5881 5882 5883 5883 5884 5885 5886 5887 5888 5889
5894 5894 5893 5893 5893 5893 5892 5892 5892 5891 5890 5890 5889 5888 5887 5886 5884 5883 5882 5881 5880 5879 5879 5878 5878 5877 5877 5877 5877 5877 5878 5878 5879 5879 5880 5881 5882 5883 5884 5885 5886 5887 5888
5893 5893 5893 5893 5893 5892 5892 5892 5891 5891 5890 5889 5888 5887 5886 5885 5884 5883 5881 5880 5879 5878 5877 5877 5876 5876 5876 5876 5876 5876 5876 5876 5877 5878 5879 5880 5881 5882 5883 5884 5885 5886 5887
5893 5893 5893 5892 5892 5892 5892 5891 5891 5890 5890 5889 5888 5887 5885 5884 5883 5882 5881 5879 5878 5877 5876 5875 5875 5874 5874 5874 5874 5874 5875 5875 5876 5876 5877 5878 5879 5880 5881 5882 5884 5885 5886
5892 5892 5892 5892 5892 5892 5891 5891 5891 5890 5889 5889 5888 5886 5885 5884 5882 5881 5880 5878 5877 5876 5875 5874 5874 5873 5873 5873 5873 5873 5873 5874 5874 5875 5876 5877 5878 5879 5880 5881 5882 5883 5884
5891 5891 5891 5891 5891 5891 5891 5891 5890 5890 5889 5888 5887 5886 5884 5883 5882 5880 5879 5878 5876 5875 5874 5873 5873 5872 5872 5871 5871 5871 5872 5872 5872 5873 5874 5875 5876 5877 5878 5879 5880 5882 5883
5890 5890 5890 5890 5891 5891 5890 5890 5890 5889 5888 5888 5887 5885 5884 5882 5881 5879 5878 5877 5875 5874 5873 5872 5871 5871 5871 5870 5870 5870 5870 5870 5871 5872 5873 5873 5874 5875 5877 5878 5879 5880 5881
5889 5889 5889 5889 5890 5890 5890 5889 5889 5888 5888 5887 5886 5885 5883 5882 5880 5879 5877 5876 5874 5873 5872 5871 5870 5870 5869 5869 5869 5869 5869 5869 5870 5871 5871 5872 5873 5874 5875 5876 5877 5878 5879
5888 5888 5888 5889 5889 5889 5889 5889 5888 5888 5887 5886 5885 5884 5883 5881 5880 5878 5877 5875 5874 5872 5871 5870 5869 5869 5868 5868 5867 5867 5867 5868 5869 5869 5870 5871 5872 5873 5874 5875 5876 5877 5878
5886 5887 5887 5888 5888 5888 5888 5888 5887 5887 5886 5886 5885 5884 5882 5881 5879 5877 5876 5874 5873 5872 5870 5869 5868 5868 5867 5867 5866 5866 5866 5867 5867 5868 5869 5869 5870 5871 5872 5873 5874 5875 5876
5885 5886 5886 5886 5887 5887 5887 5887 5887 5886 5886 5885 5884 5883 5882 5880 5878 5877 5875 5874 5872 5871 5870 5869 5868 5867 5866 5866 5866 5865 5866 5866 5866 5867 5868 5869 5870 5870 5871 5872 5873 5874 5875
5884 5885 5885 5886 5886 5886 5887 5887 5886 5886 5886 5885 5884 5883 5881 5880 5878 5876 5875 5873 5872 5870 5869 5868 5867 5866 5866 5865 5865 5865 5865 5866 5866 5867 5867 5868 5869 5870 5871 5871 5872 5873 5874
5883 5884 5885 5885 5886 5886 5886 5886 5886 5885 5885 5884 5883 5882 5881 5879 5877 5876 5874 5873 5871 5870 5868 5868 5867 5866 5865 5865 5865 5865 5865 5865 5866 5866 5867 5868 5869 5869 5870 5871 5872 5872 5873
5882 5883 5884 5884 5885 5885 5885 5885 5885 5885 5884 5883 5882 5881 5880 5878 5877 5875 5874 5872 5871 5869 5868 5867 5866 5866 5865 5865 5865 5865 5865 5865 5865 5866 5867 5868 5869 5869 5870 5871 5871 5872 5873
5880 5882 5883 5884 5884 5884 5884 5885 5884 5884 5883 5883 5882 5880 5879 5878 5876 5875 5873 5872 5870 5869 5868 5867 5866 5865 5865 5865 5865 5865 5865 5865 5865 5866 5867 5867 5868 5869 5870 5870 5871 5871 5872
5879 5881 5882 5882 5883 5883 5884 5884 5884 5883 5883 5882 5881 5880 5879 5877 5876 5875 5873 5872 5870 5869 5868 5867 5866 5865 5865 5865 5864 5864 5865 5865 5866 5866 5866 5867 5868 5869 5869 5870 5870 5871 5871
5878 5879 5881 5881 5882 5882 5883 5883 5883 5882 5882 5881 5880 5879 5878 5877 5875 5874 5873 5872 5870 5869 5868 5867 5866 5865 5865 5865 5864 5864 5865 5865 5865 5866 5866 5867 5867 5868 5869 5869 5870 5870 5871
5876 5878 5879 5880 5881 5881 5882 5882 5882 5882 5881 5881 5880 5879 5878 5876 5875 5874 5873 5871 5870 5869 5867 5867 5866 5866 5865 5865 5865 5865 5865 5865 5865 5866 5866 5866 5867 5868 5868 5869 5869 5870 5870
5875 5876 5877 5878 5879 5880 5881 5881 5881 5881 5881 5880 5879 5878 5877 5876 5875 5874 5872 5871 5870 5869 5867 5867 5866 5866 5866 5865 5865 5865 5865 5866 5866 5866 5866 5867 5867 5867 5868 5868 5869 5869 5869
5874 5875 5876 5877 5878 5879 5879 5880 5880 5880 5880 5879 5879 5878 5877 5876 5875 5873 5872 5871 5870 5869 5867 5867 5866 5866 5866 5866 5866 5865 5866 5867 5866 5866 5866 5867 5867 5867 5867 5868 5868 5868 5869
5872 5873 5874 5876 5877 5877 5878 5879 5879 5879 5879 5878 5878 5877 5877 5876 5874 5873 5872 5871 5870 5869 5867 5867 5866 5866 5866 5866 5866 5866 5866 5866 5866 5866 5866 5866 5867 5867 5867 5867 5867 5868 5868
5870 5872 5873 5874 5875 5876 5877 5878 5878 5878 5878 5878 5877 5877 5876 5875 5874 5873 5872 5871 5870 5869 5868 5867 5867 5866 5866 5866 5866 5866 5866 5866 5866 5866 5866 5866 5866 5866 5866 5867 5866 5866 5866
5869 5870 5872 5873 5874 5875 5876 5876 5877 5877 5877 5877 5876 5876 5875 5874 5873 5872 5871 5871 5870 5869 5868 5867 5867 5866 5866 5866 5866 5865 5865 5865 5866 5866 5865 5866 5866 5866 5866 5866 5866 5865 5865
5867 5868 5870 5871 5872 5873 5874 5875 5875 5875 5876 5876 5875 5875 5874 5873 5873 5872 5871 5870 5869 5868 5868 5867 5867 5866 5866 5866 5865 5865 5865 5865 5865 5865 5865 5865 5865 5865 5865 5865 5864 5864 5864
Wind_Speed
2 1 0 1 1 2 2 1 2 2 2 2 3 3 4 4 5 5 5 5 5 5 5 5 6 6 6 6 7 8 8 8 8 8 9 9 9 9 10 10 9 8 8
1 0 0 0 1 1 1 1 1 2 2 2 3 4 4 5 5 5 5 4 4 5 5 5 5 6 6 7 7 7 8 8 8 8 9 9 10 10 11 10 10 9 9
2 1 1 1 0 1 1 1 1 2 2 3 4 4 5 5 5 5 5 5 4 5 5 5 5 6 6 7 7 7 7 8 8 9 9 9 10 10 10 10 10 10 9
2 2 2 2 1 1 1 1 1 2 2 3 4 5 5 5 5 5 5 5 5 5 5 5 5 6 6 6 6 6 7 8 8 9 9 9 10 10 11 11 10 10 10
2 2 3 2 1 2 2 1 1 2 3 3 4 5 5 5 5 5 5 5 5 5 5 5 5 6 6 6 6 6 7 8 8 9 9 9 10 10 11 11 10 10 10
3 2 2 2 2 2 2 1 1 2 3 3 4 5 5 6 5 5 5 5 5 6 6 5 5 5 6 5 6 7 7 7 8 9 9 9 10 10 10 10 10 10 10
4 4 3 4 3 2 2 1 1 2 2 3 4 5 6 6 6 5 5 5 5 5 5 5 5 5 5 5 5 6 7 7 8 8 8 9 10 10 10 10 11 11 11
4 4 5 4 4 3 2 2 1 2 3 3 5 6 6 6 6 6 5 5 5 5 5 5 4 5 5 5 5 6 6 6 7 7 8 9 9 9 9 10 11 11 11
6 5 5 4 4 4 3 2 2 2 3 4 5 6 6 6 6 6 6 6 6 5 5 5 5 4 5 5 5 6 6 6 6 7 7 8 9 9 9 9 10 10 10
6 5 5 5 5 4 3 3 3 3 3 3 5 5 6 6 6 6 6 6 6 5 5 5 4 4 4 4 5 6 6 6 6 6 7 7 8 9 9 9 10 10 10
6 6 5 5 4 5 4 3 2 2 2 3 5 6 6 6 6 6 6 6 6 5 5 4 4 3 3 4 5 5 6 6 6 6 6 7 8 8 8 8 9 9 9
6 6 5 5 5 4 4 3 2 2 2 3 4 6 6 6 7 7 7 6 5 5 4 4 3 3 2 3 4 4 5 5 6 6 6 7 7 7 7 8 8 8 9
6 5 5 5 4 4 3 2 1 1 2 3 4 5 6 6 6 7 7 6 6 5 4 3 3 2 1 2 2 2 3 4 5 5 5 6 6 6 7 7 7 8 8
6 5 5 5 4 3 3 2 1 1 2 3 4 5 5 6 6 6 6 6 6 5 4 3 2 1 1 1 1 2 3 4 4 5 4 5 5 5 6 6 7 7 7
7 6 6 6 5 4 3 2 1 1 2 3 4 4 4 6 6 6 6 6 6 5 4 3 2 1 1 1 0 1 2 3 4 4 5 5 5 5 5 5 6 6 6
8 7 6 6 5 4 3 2 2 1 2 3 3 4 4 5 5 6 6 6 5 5 4 4 3 1 1 1 1 1 2 3 3 4 5 5 5 5 5 5 5 5 4
8 7 6 6 6 5 4 3 1 1 2 3 3 4 4 5 5 5 6 6 5 5 4 4 3 2 1 1 1 1 2 2 3 4 4 4 5 5 5 5 4 4 4
8 7 7 7 6 5 4 2 1 1 2 2 3 3 4 4 5 5 5 5 5 5 4 4 3 3 2 2 2 2 2 2 3 3 3 4 5 5 5 5 4 4 5
8 7 7 7 6 5 4 2 2 1 1 2 2 3 4 4 4 5 5 5 5 5 4 4 3 3 2 2 3 3 3 3 2 2 3 4 5 5 5 5 5 5 5
8 8 7 7 6 5 4 3 2 1 1 1 2 3 3 3 4 4 4 5 5 4 4 4 3 3 3 2 2 3 2 2 2 2 3 3 4 5 5 5 5 5 5
8 8 7 7 6 5 4 3 2 2 1 1 1 2 3 3 3 3 4 4 4 4 4 4 4 4 3 2 2 2 2 2 2 2 2 2 3 4 5 4 4 5 5
8 8 7 7 6 6 5 4 3 3 2 1 1 2 2 2 3 3 4 4 4 4 3 3 3 3 3 2 2 2 2 1 1 1 1 2 2 3 3 4 4 4 5
8 8 6 7 7 6 6 5 4 4 3 2 1 1 1 2 3 3 3 3 4 3 3 2 2 2 2 1 1 1 1 0 1 1 1 1 2 3 3 3 3 4 5
9 8 7 7 7 7 6 5 5 4 3 2 1 1 2 2 3 3 3 3 3 3 2 2 1 1 1 1 1 0 0 1 1 1 0 1 2 2 3 3 3 4 4
10 9 8 8 8 8 7 6 5 5 4 3 2 2 2 2 2 3 3 3 3 3 2 2 1 1 1 1 1 1 1 1 1 1 1 2 2 2 3 4 4 4 5
11 10 9 8 8 8 7 6 5 5 5 4 4 3 4 3 3 3 3 3 3 3 2 2 1 1 2 2 2 2 2 3 3 3 3 3 3 3 4 4 5 5 6
Wind_Direction
128 107 99 80 43 15 349 348 359 2 0 352 341 333 323 321 313 308 306 293 283 279 274 269 262 257 249 239 235 233 232 231 228 222 218 214 210 209 208 207 206 207 204
172 195 287 334 21 11 350 4 357 2 353 339 334 333 333 331 323 318 312 303 291 284 279 274 269 257 257 246 240 239 236 233 228 223 219 218 216 213 211 211 213 210 206
215 230 257 268 288 320 344 331 349 353 338 337 337 330 329 329 324 316 310 307 299 290 283 275 268 261 259 252 247 240 236 233 230 226 222 222 220 217 214 216 216 210 210
230 241 245 251 239 285 328 323 317 321 329 335 334 330 328 329 326 323 319 314 306 294 286 279 271 266 263 257 246 238 235 234 232 228 225 224 222 219 217 218 219 215 214
238 242 245 237 250 287 296 311 328 336 335 332 333 333 332 331 329 322 316 315 309 304 294 284 278 269 263 258 247 241 241 238 233 229 225 224 222 221 221 220 220 220 219
232 237 231 239 259 267 261 285 338 344 344 344 343 342 340 334 329 325 321 315 311 306 301 288 281 273 262 258 247 242 243 237 231 226 223 225 224 223 223 223 223 223 225
236 236 243 250 258 260 248 250 326 342 342 347 347 346 344 342 337 331 328 323 318 311 303 292 281 275 268 259 250 243 239 233 226 225 223 225 226 227 225 225 225 226 228
236 241 243 251 252 244 244 256 303 331 338 342 346 346 345 345 341 336 334 330 323 319 313 300 284 276 272 263 254 244 238 233 230 225 223 224 224 225 224 225 225 226 229
240 236 236 249 250 246 235 245 283 310 329 337 347 347 348 347 345 343 342 336 327 323 320 310 293 282 272 263 255 247 241 236 231 224 223 225 222 221 224 227 226 229 234
247 240 241 244 243 238 230 251 276 299 326 335 344 348 349 348 346 345 345 343 336 328 322 316 301 289 273 260 255 252 244 234 228 225 223 223 222 223 225 229 229 233 235
248 249 241 226 229 234 236 264 274 295 318 329 340 348 351 349 348 348 346 344 342 332 323 315 306 291 270 256 251 249 243 233 224 221 217 216 219 223 226 227 228 231 233
240 242 228 219 220 223 230 249 263 297 317 327 339 352 356 352 351 349 347 347 342 334 327 325 319 302 272 253 249 242 236 232 221 216 213 213 213 218 220 219 221 225 227
225 223 223 215 213 218 219 225 267 295 324 336 346 353 355 353 352 350 349 349 348 341 336 339 335 322 283 250 247 238 223 224 218 209 206 208 210 213 217 218 219 223 226
220 216 216 204 205 199 203 213 277 297 322 337 345 349 354 355 354 353 356 356 353 352 353 350 348 351 351 282 232 223 219 206 200 196 194 199 201 206 210 215 217 222 227
213 213 217 206 199 200 208 216 265 298 325 341 347 352 356 358 358 359 2 1 357 356 2 6 359 3 18 13 101 165 179 185 189 189 193 191 197 203 201 207 212 217 222
210 207 207 203 201 201 209 223 256 318 357 350 351 355 356 358 1 5 6 3 2 3 10 18 21 22 38 43 41 129 159 175 181 187 192 195 194 198 196 199 203 210 215
203 197 197 201 207 206 216 230 247 333 3 353 354 359 356 357 359 5 7 7 9 10 14 23 31 38 48 60 80 122 140 157 156 169 180 190 198 201 195 199 206 208 209
200 198 198 200 208 210 218 221 244 314 338 341 352 357 358 3 4 8 11 9 14 15 19 26 36 45 52 66 86 106 136 155 166 176 181 186 194 197 200 206 212 214 216
206 204 205 203 212 215 213 222 252 291 324 339 349 359 2 8 11 13 13 12 18 24 27 29 39 51 53 63 83 99 120 135 157 174 181 189 199 205 205 213 217 219 220
207 210 213 213 217 213 219 229 240 260 294 344 358 4 5 11 16 21 20 18 23 29 32 34 43 52 52 69 91 100 110 116 144 163 177 187 196 205 209 214 216 221 224
210 216 216 215 216 217 225 229 232 245 267 295 351 1 9 15 16 20 19 22 23 22 30 40 49 55 56 68 89 100 109 120 149 168 186 190 193 202 207 214 220 226 229
211 209 211 210 214 222 225 225 225 236 252 285 343 355 2 4 5 11 20 25 27 26 34 42 52 58 53 62 80 96 112 120 126 126 143 171 180 195 206 212 223 229 234
202 204 211 212 218 222 222 223 225 230 235 266 290 326 339 350 355 2 16 20 18 18 29 45 58 56 43 50 80 90 108 132 136 129 126 162 188 206 217 226 234 242 248
201 203 215 215 219 221 220 224 228 228 235 246 260 286 320 341 351 358 3 7 10 17 28 35 40 32 20 18 31 56 168 197 176 156 197 192 212 221 226 231 241 254 262
204 204 212 214 218 216 216 222 227 231 237 235 251 272 297 325 339 350 351 355 2 9 12 10 4 355 348 340 322 307 249 234 238 243 251 246 236 233 237 244 248 257 269
207 205 207 210 215 214 211 217 225 231 234 239 255 267 282 300 313 330 334 331 333 341 347 345 341 333 322 313 297 282 272 263 257 248 247 250 252 253 254 256 259 264 272